[[{"header":{"parameterUnit":"m.s-1","parameterCategory":1,"la1":30.2991,"la2":30.254,"lo1":-89.0895,"lo2":-89.0444,"dy":0.0017,"dx":0.0017,"nx":28,"ny":28,"refTime":"2024-04-07T21:00:00:Z","depth":0,"parameterNumber":2,"parameterNumberName":"U-component_of_WINDS"},"data":[0,0,0,0,0,0,0,0,0,0,0,0,0,0,0,0,0,0,0,0,0,0,0,0,0,0,0,0,0,0,0,0,0,0,0,0,0,0,0,0,0,0,0,0,0,0,0,0,0,0,0,0,0,0,0,0,0,0,-4.3725,-4.3725,0,-4.3753,-4.3754,-4.3754,-4.373,-4.3729,-4.3728,-4.3727,-4.3755,-4.3757,-4.3759,0,0,0,0,0,0,0,0,0,0,0,0,0,-4.365,-4.3652,-4.3725,-4.3725,-4.3726,-4.3753,-4.3754,-4.3754,-4.373,-4.3729,-4.3728,-4.3727,-4.3755,-4.3757,-4.3759,0,0,0,0,0,0,0,0,0,0,0,0,0,-4.3681,-4.3652,-4.3725,-4.3717,-4.3717,-4.3753,-4.3754,-4.3754,-4.3731,-4.3729,-4.3728,-4.3726,-4.3754,-4.3756,-4.3759,-4.3804,0,0,-4.3767,-4.3768,0,0,0,0,0,0,0,0,-4.3679,-4.3684,-4.3718,-4.3718,-4.3717,-4.3737,-4.3738,-4.3771,-4.3731,-4.3725,-4.3727,-4.3726,-4.375,-4.3753,-4.3761,-4.3805,-4.3807,-4.3767,-4.3768,-4.3769,-4.377,0,0,0,0,0,0,0,-4.3677,-4.3682,-4.3736,-4.3718,-4.3718,-4.3712,-4.3715,-4.3744,-4.3746,-4.3726,-4.3724,-4.3728,-4.375,-4.3759,-4.3762,-4.3807,-4.3767,-4.3769,-4.3771,-4.3772,-4.389,-4.3892,0,0,0,0,0,0,-4.3676,-4.3681,-4.3735,-4.3737,-4.3694,-4.3715,-4.3718,-4.3732,-4.3745,-4.3746,-4.3729,-4.3727,-4.3756,-4.3759,-4.3763,-4.3816,-4.3769,-4.3772,-4.3773,-4.3888,-4.389,-4.3892,0,0,0,0,0,0,-4.3674,-4.3681,-4.3734,-4.3708,-4.3715,-4.3718,-4.3734,-4.3733,-4.3742,-4.3748,-4.3748,-4.3738,-4.3755,-4.3759,-4.3794,-4.3816,-4.3773,-4.3775,-4.3886,-4.3889,-4.3891,-4.3922,0,0,0,0,0,0,-4.3672,-4.3681,-4.3697,-4.3709,-4.3716,-4.3765,-4.3735,-4.3735,-4.3747,-4.3744,-4.3756,-4.3757,-4.3754,-4.3791,-4.3797,-4.3819,-4.3777,-4.3884,-4.3888,-4.389,-4.3919,-4.3925,-4.3931,0,0,0,0,0,-4.367,-4.3705,-4.3698,-4.3705,-4.3737,-4.3766,-4.377,-4.3766,-4.3749,-4.3766,-4.377,-4.3757,-4.3814,-4.3794,-4.3801,-4.3824,-4.3883,-4.3887,-4.389,-4.3917,-4.3924,-4.3931,0,0,0,0,0,0,-4.3695,-4.3706,-4.3699,-4.3739,-4.3752,-4.3762,-4.3783,-4.3774,-4.3791,-4.3788,-4.3782,-4.3785,-4.3821,-4.3827,-4.3805,-4.3869,-4.3846,-4.3851,-4.3863,-4.3871,-4.3877,-4.3873,-4.3779,0,0,0,0,0,-4.3705,-4.3727,-4.3736,-4.3771,-4.3778,-4.3779,-4.3792,-4.3788,-4.38,-4.3805,-4.3812,-4.3825,-4.3845,-4.3859,-4.3879,-4.3922,-4.3923,-4.3941,-4.3947,-4.3952,-4.3955,-4.3978,-4.3985,-4.3904,-4.3904,-4.3904,0,0,-4.3726,-4.3735,-4.3749,-4.3776,-4.3785,-4.3808,-4.3784,-4.3809,-4.3826,-4.3809,-4.3842,-4.3848,-4.3862,-4.3901,-4.3918,-4.3906,-4.3979,-4.3957,-4.396,-4.3961,-4.3982,-4.399,-4.3997,-4.3907,-4.3906,-4.3906,0,0,-4.3775,-4.3785,-4.3814,-4.3825,-4.384,-4.3841,-4.3849,-4.3861,-4.3864,-4.3897,-4.3885,-4.3906,-4.3942,-4.3953,-4.3963,-4.4019,-4.4008,-4.4026,-4.4055,-4.4078,-4.4084,-4.4089,-4.4108,-4.4115,-4.4031,-4.4031,-4.4031,0,-4.3799,-4.3833,-4.383,-4.3857,-4.3869,-4.3856,-4.3886,-4.3896,-4.3917,-4.3925,-4.3913,-4.3959,-4.3967,-4.4008,-4.4022,-4.4032,-4.4039,-4.4023,-4.4083,-4.4089,-4.4094,-4.4112,-4.4119,-4.4033,-4.4032,-4.4032,-4.4032,0,-4.3861,-4.3885,-4.3907,-4.3927,-4.3943,-4.397,-4.3972,-4.3988,-4.3984,-4.3987,-4.4021,-4.4032,-4.4053,-4.4064,-4.406,-4.4105,-4.4097,-4.4084,-4.4059,-4.4104,-4.412,-4.4127,-4.4035,-4.4035,-4.4034,-4.4034,0,0,-4.3922,-4.3943,-4.3951,-4.396,-4.3978,-4.3996,-4.4025,-4.4046,-4.4059,-4.4075,-4.4098,-4.413,-4.4119,-4.4131,-4.4128,-4.4148,-4.4191,-4.4133,-4.4133,-4.4141,-4.424,-4.4247,-4.4255,-4.4185,-4.4187,-4.4188,-4.4238,0,-4.397,-4.4019,-4.4018,-4.4063,-4.4085,-4.4076,-4.41,-4.4113,-4.4118,-4.4138,-4.4143,-4.4165,-4.415,-4.4157,-4.4176,-4.4181,-4.421,-4.4178,-4.4205,-4.4206,-4.4198,-4.4263,-4.4271,-4.4317,-4.4244,-4.4245,-4.4246,0,-4.4032,-4.405,-4.4097,-4.4112,-4.4121,-4.4143,-4.4163,-4.4183,-4.4198,-4.42,-4.4215,-4.421,-4.4239,-4.4217,-4.4256,-4.4234,-4.4246,-4.4251,-4.4253,-4.4252,-4.4226,-4.4262,-4.4332,-4.4338,-4.4257,-4.4256,-4.4255,0,-4.407,-4.4107,-4.4139,-4.4148,-4.4167,-4.4182,-4.4191,-4.4205,-4.4218,-4.4237,-4.4245,-4.4267,-4.4278,-4.4295,-4.4297,-4.4281,-4.4336,-4.4314,-4.4337,-4.4337,-4.4346,-4.4345,-4.4416,-4.4359,-4.4359,-4.4359,-4.4358,0,-4.4121,-4.415,-4.4156,-4.4176,-4.4208,-4.4209,-4.424,-4.4248,-4.4261,-4.4282,-4.4277,-4.4296,-4.4298,-4.4319,-4.4321,-4.4352,-4.4358,-4.436,-4.4359,-4.4359,-4.4358,-4.4363,-4.4359,-4.436,-4.436,-4.436,-4.4359,0,-4.4167,-4.4173,-4.4207,-4.4223,-4.4228,-4.4251,-4.4264,-4.4283,-4.4289,-4.4315,-4.4322,-4.433,-4.4354,-4.4358,-4.4387,-4.4388,-4.4425,-4.4423,-4.442,-4.4418,-4.444,-4.4437,-4.4515,-4.4525,-4.4464,-4.4464,-4.4465,0,-4.4198,-4.422,-4.4239,-4.4252,-4.4262,-4.4285,-4.4299,-4.4301,-4.4316,-4.4337,-4.4353,-4.4377,-4.4396,-4.4436,-4.4444,-4.4466,-4.4463,-4.4489,-4.4466,-4.4464,-4.446,-4.4458,-4.4459,-4.4492,-4.4492,-4.4493,-4.4493,0,-4.4252,-4.4254,-4.4275,-4.4297,-4.4314,-4.4331,-4.4348,-4.436,-4.4365,-4.4382,-4.4407,-4.4422,-4.4452,-4.4475,-4.4498,-4.4507,-4.4501,-4.4501,-4.4507,-4.4505,-4.4501,-4.4501,-4.4429,-4.4498,-4.4498,-4.4498,-4.4497,-4.4497,-4.429,-4.4309,-4.4325,-4.4348,-4.4361,-4.4377,-4.4396,-4.4404,-4.4425,-4.445,-4.4451,-4.4478,-4.4495,-4.4524,-4.4535,-4.4556,-4.4548,-4.4557,-4.4559,-4.4561,-4.4562,-4.4501,-4.4561,-4.4561,-4.4561,-4.4561,-4.4561,0,-4.4342,-4.4352,-4.4374,-4.4397,-4.4416,-4.4411,-4.4429,-4.4445,-4.4469,-4.4485,-4.4505,-4.4534,-4.4557,-4.4569,-4.4592,-4.4607,-4.4605,-4.4613,-4.461,-4.4612,-4.4569,-4.456,-4.4614,-4.4614,-4.4614,-4.4614,-4.4614,-4.4614,-4.437,-4.4402,-4.4406,-4.4445,-4.4455,-4.4482,-4.4493,-4.4508,-4.452,-4.4553,-4.4573,-4.4581,-4.4595,-4.462,-4.4641,-4.4644,-4.4652,-4.4661,-4.4662,-4.4621,-4.4615,-4.461,-4.4601,-4.4663,-4.4663,-4.4703,-4.4704,-4.4704]},{"header":{"parameterUnit":"m.s-1","parameterCategory":1,"la1":30.2991,"la2":30.254,"lo1":-89.0895,"lo2":-89.0444,"dy":0.0017,"dx":0.0017,"nx":28,"ny":28,"refTime":"2024-04-07T21:00:00:Z","depth":0,"parameterNumber":3,"parameterNumberName":"V-component_of_WINDS"},"data":[0,0,0,0,0,0,0,0,0,0,0,0,0,0,0,0,0,0,0,0,0,0,0,0,0,0,0,0,0,0,0,0,0,0,0,0,0,0,0,0,0,0,0,0,0,0,0,0,0,0,0,0,0,0,0,0,0,0,3.463,3.463,0,3.4617,3.4617,3.4617,3.4659,3.466,3.4662,3.4663,3.4646,3.4644,3.4642,0,0,0,0,0,0,0,0,0,0,0,0,0,3.4689,3.4688,3.463,3.463,3.463,3.4617,3.4617,3.4617,3.4659,3.466,3.4662,3.4663,3.4646,3.4644,3.4642,0,0,0,0,0,0,0,0,0,0,0,0,0,3.4668,3.4687,3.463,3.4649,3.4651,3.4617,3.4617,3.4617,3.4659,3.466,3.4662,3.4664,3.4647,3.4644,3.4642,3.4588,0,0,3.4634,3.4633,0,0,0,0,0,0,0,0,3.4669,3.4666,3.4647,3.4648,3.465,3.4642,3.4632,3.4607,3.4658,3.4656,3.4663,3.4665,3.4642,3.464,3.4634,3.4587,3.4586,3.4634,3.4633,3.4631,3.4631,0,0,0,0,0,0,0,3.4671,3.4667,3.4625,3.4646,3.4648,3.4658,3.4657,3.4627,3.4638,3.4656,3.4659,3.4657,3.4644,3.4636,3.4634,3.4586,3.4634,3.4632,3.463,3.4629,3.4497,3.4495,0,0,0,0,0,0,3.467,3.4668,3.4626,3.4625,3.4665,3.4655,3.4654,3.4642,3.4639,3.464,3.4655,3.4659,3.4639,3.4636,3.4633,3.4571,3.4631,3.4629,3.4628,3.4499,3.4497,3.4495,0,0,0,0,0,0,3.4671,3.4666,3.4626,3.4647,3.4643,3.4652,3.4638,3.4641,3.4634,3.4638,3.464,3.4646,3.4641,3.4637,3.46,3.4571,3.4628,3.4626,3.4502,3.4498,3.4496,3.4446,0,0,0,0,0,0,3.4673,3.4666,3.4646,3.4646,3.4642,3.4593,3.4637,3.464,3.463,3.4634,3.463,3.4631,3.4642,3.4603,3.4597,3.4569,3.4624,3.4504,3.45,3.4497,3.4451,3.4442,3.4435,0,0,0,0,0,3.4675,3.4631,3.4645,3.4639,3.4617,3.4592,3.4589,3.4603,3.4627,3.4607,3.4611,3.4631,3.4576,3.4599,3.4593,3.4563,3.4506,3.4501,3.4497,3.4454,3.4444,3.4435,0,0,0,0,0,0,3.4625,3.4632,3.4647,3.4602,3.4596,3.4599,3.4574,3.4592,3.4577,3.4582,3.46,3.4599,3.4559,3.4557,3.4583,3.4512,3.4545,3.4539,3.4514,3.4505,3.4497,3.4498,3.4622,0,0,0,0,0,3.461,3.459,3.4596,3.4556,3.4553,3.4564,3.4553,3.4565,3.4559,3.4556,3.4557,3.4549,3.4531,3.4517,3.45,3.4451,3.4451,3.4428,3.442,3.4413,3.4408,3.4383,3.4373,3.448,3.448,3.448,0,0,3.4576,3.4577,3.4563,3.4546,3.4543,3.4522,3.4561,3.4536,3.452,3.4552,3.4518,3.4518,3.4511,3.4468,3.4449,3.4466,3.4379,3.4407,3.4402,3.44,3.4378,3.4367,3.4358,3.4476,3.4477,3.4478,0,0,3.4505,3.4503,3.4471,3.4468,3.4463,3.4471,3.4464,3.4464,3.4466,3.4433,3.4457,3.4438,3.4404,3.4399,3.4392,3.4321,3.434,3.4315,3.4273,3.4249,3.4241,3.4233,3.4209,3.42,3.4309,3.4309,3.4309,0,3.4463,3.4433,3.4452,3.4426,3.4418,3.4449,3.4416,3.4412,3.4401,3.4394,3.4413,3.4374,3.4371,3.4328,3.4311,3.4304,3.4296,3.4315,3.4241,3.4233,3.4227,3.4204,3.4195,3.4306,3.4306,3.4307,3.4307,0,3.4383,3.4362,3.4336,3.4328,3.4317,3.4288,3.4302,3.4289,3.4302,3.4308,3.4275,3.4273,3.4256,3.4247,3.4259,3.4206,3.4217,3.4238,3.4271,3.4214,3.4192,3.4184,3.4302,3.4303,3.4304,3.4304,0,0,3.4279,3.4283,3.4274,3.4271,3.4269,3.4253,3.4225,3.4212,3.42,3.4192,3.417,3.4142,3.4163,3.4154,3.4166,3.4145,3.4091,3.4169,3.4169,3.4155,3.4034,3.4019,3.4009,3.4104,3.4102,3.4101,3.4035,0,3.421,3.4165,3.4182,3.4135,3.4116,3.4146,3.4122,3.4118,3.4123,3.4108,3.4113,3.4094,3.4121,3.4117,3.4097,3.4102,3.4067,3.4107,3.4083,3.4082,3.4084,3.3997,3.3981,3.3919,3.4027,3.4026,3.4025,0,3.4123,3.4114,3.4066,3.407,3.4063,3.4041,3.4031,3.4015,3.4012,3.4017,3.401,3.4027,3.4,3.4034,3.3997,3.4024,3.4015,3.4016,3.4014,3.4013,3.405,3.3994,3.39,3.3891,3.4012,3.4013,3.4014,0,3.4053,3.4029,3.3998,3.3995,3.3998,3.3982,3.3983,3.3982,3.3973,3.3963,3.3958,3.3945,3.3937,3.3927,3.394,3.3963,3.3902,3.3936,3.3906,3.3906,3.3892,3.3892,3.3795,3.3885,3.3885,3.3885,3.3885,0,3.3975,3.3944,3.3967,3.3948,3.3915,3.3935,3.3902,3.3905,3.3904,3.3886,3.391,3.3892,3.3911,3.3894,3.3904,3.3874,3.387,3.3873,3.3876,3.3872,3.3871,3.3866,3.3871,3.3883,3.3883,3.3884,3.3884,0,3.3891,3.3905,3.3873,3.388,3.3881,3.3857,3.3862,3.3845,3.3853,3.3829,3.3825,3.3837,3.3819,3.3832,3.3813,3.382,3.378,3.3789,3.3782,3.3784,3.3754,3.3757,3.365,3.3638,3.3735,3.3734,3.3733,0,3.384,3.3818,3.3823,3.3814,3.3814,3.3797,3.379,3.3808,3.3799,3.3795,3.3778,3.3763,3.3752,3.3722,3.3729,3.3715,3.3724,3.3688,3.3722,3.3719,3.3725,3.3727,3.3725,3.3681,3.368,3.3679,3.3678,0,3.3749,3.3758,3.3746,3.3737,3.3728,3.3721,3.3716,3.3707,3.3726,3.3714,3.3698,3.3689,3.3673,3.3657,3.3647,3.3647,3.3665,3.3668,3.366,3.3655,3.3652,3.3655,3.3764,3.367,3.3671,3.3671,3.3672,3.3672,3.3681,3.3664,3.3666,3.3652,3.3651,3.3647,3.3631,3.3638,3.3625,3.3614,3.3626,3.3606,3.3605,3.3593,3.3591,3.3575,3.359,3.3579,3.3576,3.3573,3.357,3.3655,3.3573,3.3573,3.3574,3.3574,3.3574,0,3.3593,3.3596,3.3583,3.3577,3.3567,3.3588,3.3584,3.3573,3.3557,3.3554,3.3544,3.3526,3.3512,3.3518,3.3506,3.3492,3.3501,3.3488,3.349,3.349,3.3556,3.3565,3.3482,3.3482,3.3482,3.3482,3.3482,3.3482,3.3545,3.3518,3.3527,3.3499,3.3502,3.3484,3.3481,3.3477,3.3476,3.3455,3.3444,3.3449,3.345,3.3439,3.3427,3.3429,3.3424,3.3409,3.3414,3.3476,3.3485,3.3494,3.3502,3.3407,3.3407,3.3349,3.3348,3.3348]}]]